User: anonymous   Login
Location: B
(0.0000°N, 0.0000°E)
Time: 21:58:18
(UTC+02:00)
Language:

Cosmos 1025 Rocket - Orbit

View from above orbital plane
View from above orbital plane
View from above satellite
View from above satellite

Ground track
Ground track

The orbit data is extracted from the following two-line orbital elements,

1 10974U 78067B   15242.47113103  .00000203  00000-0  19886-4 0  9994
2 10974 082.4796 071.0829 0017588 004.5869 355.5506 14.87029276  9955
Epoch (UTC): 30 August 2015 11:18:25
Eccentricity: 0.0017588
inclination: 82.4796°
perigee height: 595 km
apogee height: 619 km
right ascension of ascending node: 71.0829°
argument of perigee: 4.5869°
revolutions per day: 14.87029276
mean anomaly at epoch: 355.5506°
orbit number at epoch: 995

The dashed part of the orbit path shows where the satellite is in the earth's shadow,  

DLR